KI5RAB Weather Reports


time (UTC)temp
C
wind
direction
speed
KPH
gust
KPH
rain 1hr
cm
rain 24hr
cm
rain mn
cm
humidity
%
barometer
mb
20260510144156 26 347 1.6 1.6 0.00 0.00 0.00 76 1016.4
20260510143651 26 321 0.0 0.0 0.00 0.00 0.00 78 1016.4
20260510143148 26 333 3.2 3.2 0.00 0.00 0.00 78 1016.3
20260510142644 26 326 3.2 3.2 0.00 0.00 0.00 77 1016.2
20260510142141 25 333 0.0 1.6 0.00 0.00 0.00 80 1016.2
20260510141638 25 331 3.2 4.8 0.00 0.00 0.00 82 1016.3
20260510141137 25 300 3.2 3.2 0.00 0.00 0.00 82 1016.1
20260510140632 25 321 1.6 3.2 0.00 0.00 0.00 83 1016.0
20260510140132 25 11 1.6 1.6 0.00 0.00 0.00 83 1015.9
20260510135627 25 312 0.0 1.6 0.00 0.00 0.00 82 1015.9
20260510135124 25 314 0.0 1.6 0.00 0.00 0.00 83 1015.9
20260510134621 24 321 0.0 1.6 0.00 0.00 0.00 84 1015.9
20260510134118 24 316 0.0 0.0 0.00 0.00 0.00 84 1015.8
20260510133614 24 58 1.6 3.2 0.00 0.00 0.00 84 1015.8
20260510133109 25 312 0.0 0.0 0.00 0.00 0.00 82 1015.7
20260510132606 24 320 0.0 0.0 0.00 0.00 0.00 84 1015.6
20260510132103 23 319 0.0 0.0 0.00 0.00 0.00 84 1015.6
20260510131601 23 320 0.0 0.0 0.00 0.00 0.00 86 1015.6
20260510131058 22 320 1.6 1.6 0.00 0.00 0.00 87 1015.5
20260510130554 22 313 1.6 1.6 0.00 0.00 0.00 86 1015.4
20260510130052 22 318 1.6 1.6 0.00 0.00 0.00 86 1015.1
20260510125548 22 320 0.0 0.0 0.00 0.00 0.00 86 1015.2
20260510125044 21 325 0.0 0.0 0.00 0.00 0.00 87 1015.2
20260510124541 21 327 0.0 0.0 0.00 0.00 0.00 88 1015.1
20260510124038 20 329 0.0 0.0 0.00 0.00 0.00 89 1015.1
20260510123533 20 351 1.6 1.6 0.00 0.00 0.00 92 1015.2
20260510123030 19 321 0.0 0.0 0.00 0.00 0.00 93 1015.4
20260510122525 19 325 0.0 0.0 0.00 0.00 0.00 94 1015.0
20260510122022 19 325 0.0 0.0 0.00 0.00 0.00 95 1015.0
20260510121519 18 322 0.0 0.0 0.00 0.00 0.00 95 1015.0
20260510121016 18 321 0.0 0.0 0.00 0.00 0.00 95 1014.9
20260510120514 18 325 0.0 0.0 0.00 0.00 0.00 95 1014.9
20260510120010 18 326 0.0 0.0 0.00 0.00 0.00 95 1014.7
20260510115507 18 326 0.0 0.0 0.00 0.00 0.00 95 1014.7
20260510115003 18 326 0.0 0.0 0.00 0.00 0.00 95 1014.8
20260510114459 18 323 0.0 0.0 0.00 0.00 0.00 95 1014.6
20260510113955 18 325 0.0 0.0 0.00 0.00 0.00 95 1014.8
20260510113450 18 326 0.0 0.0 0.00 0.00 0.00 95 1014.9
20260510112948 18 323 0.0 0.0 0.00 0.00 0.00 95 1015.0
20260510112445 18 324 0.0 0.0 0.00 0.00 0.00 95 1014.7
20260510111941 18 324 0.0 0.0 0.00 0.00 0.00 95 1014.7
20260510111437 18 324 0.0 0.0 0.00 0.00 0.00 95 1014.9
20260510110933 18 325 0.0 0.0 0.00 0.00 0.00 94 1014.5
20260510110430 18 324 0.0 0.0 0.00 0.00 0.00 94 1014.8
20260510105926 18 323 0.0 0.0 0.00 0.00 0.00 94 1014.7
20260510105421 18 322 0.0 0.0 0.00 0.00 0.00 94 1014.7
20260510104916 18 326 0.0 0.0 0.00 0.00 0.00 94 1014.8
20260510104413 18 322 0.0 0.0 0.00 0.00 0.00 94 1014.7
20260510103909 18 318 0.0 0.0 0.00 0.00 0.00 94 1014.8
20260510103402 18 318 0.0 0.0 0.00 0.00 0.00 94 1014.8
20260510102857 18 318 0.0 0.0 0.00 0.00 0.00 94 1014.9
20260510102353 18 325 0.0 0.0 0.00 0.00 0.00 93 1014.8
20260510101850 18 337 0.0 0.0 0.00 0.00 0.00 94 1015.0
20260510101348 18 328 0.0 0.0 0.00 0.00 0.00 93 1014.9
20260510100845 19 317 0.0 0.0 0.00 0.00 0.00 93 1015.0
20260510100342 19 325 0.0 0.0 0.00 0.00 0.00 93 1015.1
20260510095838 19 335 0.0 0.0 0.00 0.00 0.00 93 1015.0
20260510095333 19 318 0.0 0.0 0.00 0.00 0.00 93 1014.9
20260510094833 19 320 0.0 0.0 0.00 0.00 0.00 93 1015.0
20260510094328 19 320 0.0 0.0 0.00 0.00 0.00 93 1014.8
20260510093825 19 320 0.0 0.0 0.00 0.00 0.00 93 1014.7
20260510093321 19 320 0.0 0.0 0.00 0.00 0.00 93 1014.9
20260510092817 19 320 0.0 0.0 0.00 0.00 0.00 93 1014.8
20260510092313 19 320 0.0 0.0 0.00 0.00 0.00 92 1014.7
20260510091809 20 319 0.0 0.0 0.00 0.00 0.00 92 1014.7
20260510091306 20 323 0.0 0.0 0.00 0.00 0.00 92 1014.6
20260510090803 20 323 0.0 0.0 0.00 0.00 0.00 92 1014.7
20260510090300 20 323 0.0 0.0 0.00 0.00 0.00 92 1014.5
20260510085755 20 327 0.0 0.0 0.00 0.00 0.00 91 1014.7
20260510085249 20 327 0.0 0.0 0.00 0.00 0.00 92 1014.8
20260510084745 20 318 0.0 0.0 0.00 0.00 0.00 92 1014.6
20260510084243 20 323 0.0 0.0 0.00 0.00 0.00 92 1014.6
20260510083739 20 324 0.0 0.0 0.00 0.00 0.00 91 1014.4
20260510083236 20 325 0.0 0.0 0.00 0.00 0.00 91 1014.5
20260510082732 20 325 0.0 0.0 0.00 0.00 0.00 91 1014.5
20260510082229 20 326 0.0 0.0 0.00 0.00 0.00 90 1014.4
20260510081728 20 325 0.0 0.0 0.00 0.00 0.00 90 1014.5
20260510081224 20 323 0.0 0.0 0.00 0.00 0.00 90 1014.6
20260510080719 20 321 0.0 0.0 0.00 0.00 0.00 90 1014.3
20260510080215 20 323 0.0 0.0 0.00 0.00 0.00 89 1014.4
20260510075712 21 322 0.0 0.0 0.00 0.00 0.00 88 1014.6
20260510075210 21 322 0.0 0.0 0.00 0.00 0.00 88 1014.6
20260510074707 21 322 0.0 0.0 0.00 0.00 0.00 88 1014.5
20260510074203 21 323 0.0 0.0 0.00 0.00 0.00 87 1014.4
20260510073700 21 327 0.0 0.0 0.00 0.00 0.00 87 1014.5
20260510073155 21 330 0.0 0.0 0.00 0.00 0.00 86 1014.4
20260510072651 21 322 0.0 0.0 0.00 0.00 0.00 86 1014.3
20260510072148 22 323 0.0 0.0 0.00 0.00 0.00 85 1014.4
20260510071644 22 322 0.0 0.0 0.00 0.00 0.00 84 1014.4
20260510071142 22 325 0.0 0.0 0.00 0.00 0.00 82 1014.4
20260510070639 22 327 0.0 0.0 0.00 0.00 0.00 82 1014.6
20260510070137 22 326 0.0 0.0 0.00 0.00 0.00 82 1014.7
20260510065631 22 321 0.0 0.0 0.00 0.00 0.00 81 1014.7
20260510065128 23 323 0.0 0.0 0.00 0.00 0.00 80 1014.7
20260510064624 23 323 0.0 0.0 0.00 0.00 0.00 80 1014.5
20260510064121 23 324 0.0 0.0 0.00 0.00 0.00 79 1014.5
20260510063618 23 325 0.0 0.0 0.00 0.00 0.00 79 1014.5
20260510063115 23 320 0.0 0.0 0.00 0.00 0.00 79 1014.5
20260510062611 23 325 0.0 0.0 0.00 0.00 0.00 78 1014.6
20260510062107 23 321 0.0 0.0 0.00 0.00 0.00 78 1014.7
20260510061603 23 325 0.0 0.0 0.00 0.00 0.00 77 1014.7
20260510061100 24 326 0.0 0.0 0.00 0.00 0.00 76 1014.7
20260510060556 24 330 0.0 0.0 0.00 0.00 0.00 76 1014.6
20260510060053 24 340 0.0 0.0 0.00 0.00 0.00 76 1014.6
20260510055548 24 328 0.0 0.0 0.00 0.00 0.00 77 1014.3
20260510055047 23 315 0.0 0.0 0.00 0.00 0.00 78 1014.3
20260510054543 23 319 0.0 0.0 0.00 0.00 0.00 78 1014.3
20260510054037 23 321 0.0 0.0 0.00 0.00 0.00 78 1014.3
20260510053533 23 324 0.0 0.0 0.00 0.00 0.00 78 1014.5
20260510053030 24 320 0.0 1.6 0.00 0.00 0.00 77 1014.4
20260510052526 24 323 0.0 0.0 0.00 0.00 0.00 76 1014.4
20260510052022 25 325 0.0 0.0 0.00 0.00 0.00 75 1014.1
20260510051517 25 320 0.0 0.0 0.00 0.00 0.00 74 1014.2
20260510051014 25 327 0.0 0.0 0.00 0.00 0.00 74 1014.0
20260510050512 25 323 0.0 0.0 0.00 0.00 0.00 73 1014.2
20260510050008 25 326 0.0 0.0 0.00 0.00 0.00 73 1014.0
20260510045506 25 341 1.6 3.2 0.00 0.00 0.00 73 1014.1
20260510045001 25 344 1.6 1.6 0.00 0.00 0.00 72 1013.9
20260510044459 26 331 0.0 1.6 0.00 0.00 0.00 71 1013.9
20260510043955 26 336 0.0 1.6 0.00 0.00 0.00 71 1014.0
20260510043451 26 326 0.0 0.0 0.00 0.00 0.00 71 1014.0
20260510042950 26 338 0.0 1.6 0.00 0.00 0.00 70 1014.1
20260510042446 25 339 1.6 3.2 0.00 0.00 0.00 71 1014.0
20260510041941 25 9 3.2 4.8 0.00 0.00 0.00 72 1014.1
20260510041439 24 337 0.0 0.0 0.00 0.00 0.00 76 1013.8
20260510040937 24 324 0.0 0.0 0.00 0.00 0.00 76 1013.9
20260510040433 25 324 0.0 0.0 0.00 0.00 0.00 76 1013.7
20260510035928 25 323 0.0 0.0 0.00 0.00 0.00 75 1013.8
20260510035425 25 326 0.0 0.0 0.00 0.00 0.00 75 1013.7
20260510034924 25 326 0.0 0.0 0.00 0.00 0.00 74 1013.8
20260510034423 25 326 0.0 0.0 0.00 0.00 0.00 73 1013.7
20260510033919 25 323 0.0 0.0 0.00 0.00 0.00 73 1013.4
20260510033416 25 324 0.0 0.0 0.00 0.00 0.00 72 1013.6
20260510032912 26 324 0.0 0.0 0.00 0.00 0.00 71 1013.4
20260510032409 26 326 0.0 0.0 0.00 0.00 0.00 71 1013.5
20260510031905 26 325 0.0 0.0 0.00 0.00 0.00 70 1013.4
20260510031400 26 324 0.0 0.0 0.00 0.00 0.00 68 1013.4
20260510030855 27 324 0.0 0.0 0.00 0.00 0.00 67 1013.2
20260510030352 27 327 0.0 0.0 0.00 0.00 0.00 66 1013.4
20260510025850 27 324 0.0 0.0 0.00 0.00 0.00 65 1013.2
20260510025347 27 335 0.0 0.0 0.00 0.00 0.00 65 1013.2
20260510024844 27 327 0.0 0.0 0.00 0.00 0.00 64 1013.2
20260510024340 27 323 0.0 0.0 0.00 0.00 0.00 63 1013.0
20260510023836 28 325 0.0 1.6 0.00 0.00 0.00 62 1013.1
20260510023333 28 331 0.0 0.0 0.00 0.00 0.00 61 1013.2
20260510022831 28 329 0.0 0.0 0.00 0.00 0.00 61 1012.8
20260510022329 28 335 1.6 1.6 0.00 0.00 0.00 60 1013.0
20260510021828 28 343 0.0 0.0 0.00 0.00 0.00 59 1012.9
20260510021327 28 26 3.2 4.8 0.00 0.00 0.00 59 1012.8
20260510020823 28 332 0.0 0.0 0.00 0.00 0.00 60 1012.8
20260510020323 28 315 0.0 1.6 0.00 0.00 0.00 59 1012.8
20260510015819 28 342 0.0 1.6 0.00 0.00 0.00 58 1012.8
20260510015315 28 327 1.6 1.6 0.00 0.00 0.00 57 1012.7
20260510014810 28 60 1.6 3.2 0.00 0.00 0.00 57 1012.5
20260510014308 28 324 0.0 1.6 0.00 0.00 0.00 56 1012.5
20260510013804 28 53 1.6 3.2 0.00 0.00 0.00 55 1012.3
20260510013259 29 334 1.6 1.6 0.00 0.00 0.00 55 1012.0
20260510012755 29 332 0.0 0.0 0.00 0.00 0.00 55 1012.0
20260510012249 30 35 3.2 4.8 0.00 0.00 0.00 55 1012.2
20260510011749 30 333 1.6 1.6 0.00 0.00 0.00 56 1011.8
20260510011245 30 336 0.0 0.0 0.00 0.00 0.00 58 1011.7
20260510010742 30 52 6.4 9.7 0.00 0.00 0.00 58 1011.6
20260510010238 30 324 3.2 4.8 0.00 0.00 0.00 58 1011.8
20260510005736 30 344 3.2 3.2 0.00 0.00 0.00 58 1011.7
20260510005232 30 328 0.0 0.0 0.00 0.00 0.00 57 1011.7
20260510004730 30 324 0.0 0.0 0.00 0.00 0.00 57 1011.5
20260510004227 30 319 1.6 3.2 0.00 0.00 0.00 57 1011.5
20260510003725 30 313 0.0 0.0 0.00 0.00 0.00 56 1011.3
20260510003221 30 323 0.0 0.0 0.00 0.00 0.00 56 1011.3
20260510002719 31 279 0.0 1.6 0.00 0.00 0.00 55 1011.0
20260510002217 31 317 0.0 0.0 0.00 0.00 0.00 55 1011.1
20260510001714 31 328 0.0 0.0 0.00 0.00 0.00 53 1010.9
20260510001213 32 8 3.2 4.8 0.00 0.00 0.00 52 1011.1
20260510000708 32 320 0.0 1.6 0.00 0.00 0.00 52 1011.0
20260510000206 32 340 1.6 3.2 0.00 0.00 0.00 51 1010.7
20260509235702 32 314 0.0 1.6 0.00 0.00 0.00 52 1010.7
20260509235158 32 315 0.0 1.6 0.00 0.00 0.00 53 1010.5
20260509234655 32 249 1.6 3.2 0.00 0.00 0.00 50 1010.5
20260509234152 33 328 1.6 3.2 0.00 0.00 0.00 51 1010.8
20260509233650 33 291 1.6 3.2 0.00 0.00 0.00 49 1011.1
20260509233147 32 321 0.0 0.0 0.00 0.00 0.00 51 1011.1
20260509232643 33 355 0.0 1.6 0.00 0.00 0.00 49 1011.2
20260509232140 33 332 0.0 1.6 0.00 0.00 0.00 49 1011.2
20260509231637 32 316 0.0 0.0 0.00 0.00 0.00 51 1011.1
20260509231134 33 313 0.0 0.0 0.00 0.00 0.00 51 1011.2
20260509230631 33 319 0.0 0.0 0.00 0.00 0.00 49 1011.5
20260509230128 33 4 0.0 1.6 0.00 0.00 0.00 47 1011.1
20260509225624 33 303 1.6 1.6 0.00 0.00 0.00 47 1011.1
20260509225120 33 322 1.6 1.6 0.00 0.00 0.00 50 1010.9
20260509224615 33 295 1.6 1.6 0.00 0.00 0.00 49 1011.0
20260509224112 33 296 3.2 3.2 0.00 0.00 0.00 50 1011.0
20260509223609 33 288 0.0 1.6 0.00 0.00 0.00 50 1011.2
20260509223107 33 317 0.0 0.0 0.00 0.00 0.00 51 1011.1
20260509222603 32 57 4.8 6.4 0.00 0.00 0.00 50 1011.0
20260509222059 33 298 1.6 3.2 0.00 0.00 0.00 48 1011.1
20260509221554 34 311 3.2 3.2 0.00 0.00 0.00 48 1011.0
20260509221051 33 324 0.0 0.0 0.00 0.00 0.00 47 1011.2
20260509220546 34 15 1.6 1.6 0.00 0.00 0.00 47 1011.3
20260509220043 33 317 0.0 0.0 0.00 0.00 0.00 49 1011.2
20260509215538 32 46 3.2 4.8 0.00 0.00 0.00 49 1011.1
20260509215036 32 283 3.2 3.2 0.00 0.00 0.00 52 1011.2
20260509214533 32 320 0.0 1.6 0.00 0.00 0.00 53 1011.2
20260509214030 33 317 1.6 1.6 0.00 0.00 0.00 52 1011.2
20260509213526 34 312 0.0 1.6 0.00 0.00 0.00 50 1011.2
20260509213023 33 311 1.6 1.6 0.00 0.00 0.00 52 1011.3
20260509212520 33 329 0.0 1.6 0.00 0.00 0.00 54 1011.1
20260509212017 33 331 3.2 3.2 0.00 0.00 0.00 51 1011.2
20260509211513 34 264 1.6 1.6 0.00 0.00 0.00 49 1011.6
20260509211010 34 312 0.0 0.0 0.00 0.00 0.00 50 1011.6
20260509210506 33 308 1.6 1.6 0.00 0.00 0.00 50 1011.5
20260509210003 33 321 0.0 1.6 0.00 0.00 0.00 54 1011.8
20260509205457 33 236 1.6 1.6 0.00 0.00 0.00 53 1011.8
20260509204952 32 316 4.8 6.4 0.00 0.00 0.00 54 1011.8
20260509204449 33 279 1.6 1.6 0.00 0.00 0.00 51 1011.8
20260509203946 33 269 4.8 6.4 0.00 0.00 0.00 53 1012.1
20260509203441 33 286 0.0 0.0 0.00 0.00 0.00 50 1011.9
20260509202939 33 316 4.8 4.8 0.00 0.00 0.00 53 1012.1
20260509202435 33 327 1.6 1.6 0.00 0.00 0.00 52 1012.2
20260509201930 33 312 1.6 1.6 0.00 0.00 0.00 53 1012.2
20260509201426 32 303 0.0 1.6 0.00 0.00 0.00 55 1012.3
20260509200923 32 183 0.0 1.6 0.00 0.00 0.00 54 1012.5
20260509200423 32 271 4.8 4.8 0.00 0.00 0.00 54 1012.7
20260509195919 32 259 6.4 9.7 0.00 0.00 0.00 54 1012.7
20260509195415 32 318 3.2 3.2 0.00 0.00 0.00 54 1012.9
20260509194909 32 314 0.0 1.6 0.00 0.00 0.00 56 1013.0
20260509194405 32 288 1.6 1.6 0.00 0.00 0.00 55 1012.9
20260509193902 32 310 1.6 1.6 0.00 0.00 0.00 57 1013.1
20260509193402 33 263 1.6 3.2 0.00 0.00 0.00 53 1013.0
20260509192858 32 322 0.0 0.0 0.00 0.00 0.00 53 1013.2
20260509192354 32 284 3.2 4.8 0.00 0.00 0.00 56 1013.3
20260509191850 32 274 3.2 3.2 0.00 0.00 0.00 55 1013.4
20260509191346 32 349 1.6 1.6 0.00 0.00 0.00 55 1013.3
20260509190842 32 259 6.4 6.4 0.00 0.00 0.00 53 1013.4
20260509190339 32 313 0.0 1.6 0.00 0.00 0.00 57 1013.3
20260509185836 31 302 1.6 3.2 0.00 0.00 0.00 58 1013.4
20260509185333 31 311 1.6 3.2 0.00 0.00 0.00 56 1013.3
20260509184830 31 259 3.2 4.8 0.00 0.00 0.00 58 1013.5
20260509184327 31 303 4.8 6.4 0.00 0.00 0.00 59 1013.6
20260509183824 31 289 1.6 3.2 0.00 0.00 0.00 60 1013.6
20260509183319 30 321 3.2 3.2 0.00 0.00 0.00 61 1013.8
20260509182815 31 322 3.2 4.8 0.00 0.00 0.00 62 1013.7
20260509182312 31 263 0.0 1.6 0.00 0.00 0.00 62 1013.8
20260509181809 32 301 3.2 3.2 0.00 0.00 0.00 60 1013.6
20260509181307 31 312 3.2 3.2 0.00 0.00 0.00 62 1013.9
20260509180804 30 223 1.6 3.2 0.00 0.00 0.00 67 1013.8
20260509180300 30 200 6.4 9.7 0.00 0.00 0.00 67 1013.9
20260509175756 30 269 3.2 4.8 0.00 0.00 0.00 66 1014.0
20260509175253 30 234 3.2 4.8 0.00 0.00 0.00 66 1014.1
20260509174749 30 43 3.2 3.2 0.00 0.00 0.00 68 1014.0
20260509174244 30 345 1.6 1.6 0.00 0.00 0.00 67 1014.0
20260509173741 29 293 1.6 1.6 0.00 0.00 0.00 70 1014.2
20260509173236 30 300 3.2 3.2 0.00 0.00 0.00 69 1014.4
20260509172733 30 324 1.6 1.6 0.00 0.00 0.00 68 1014.5
20260509172229 30 301 1.6 1.6 0.00 0.00 0.00 68 1014.3
20260509171724 29 305 4.8 6.4 0.00 0.00 0.00 69 1014.4
20260509171221 30 271 3.2 4.8 0.00 0.00 0.00 68 1014.5
20260509170718 28 23 1.6 1.6 0.00 0.00 0.00 71 1014.4
20260509170214 28 297 4.8 4.8 0.00 0.00 0.00 72 1014.5
20260509165713 28 252 1.6 3.2 0.00 0.00 0.00 73 1014.6
20260509165208 28 304 0.0 1.6 0.00 0.00 0.00 73 1014.6
20260509164704 27 234 3.2 4.8 0.00 0.00 0.00 74 1014.6
20260509164200 27 286 3.2 4.8 0.00 0.00 0.00 77 1014.5
20260509163658 27 281 3.2 3.2 0.00 0.00 0.00 79 1014.6
20260509163154 28 307 3.2 4.8 0.00 0.00 0.00 76 1014.4
20260509162652 28 313 1.6 3.2 0.00 0.00 0.00 76 1014.3
20260509162147 27 306 0.0 0.0 0.00 0.00 0.00 79 1014.6
20260509161643 27 332 1.6 1.6 0.00 0.00 0.00 80 1014.3
20260509161138 27 262 3.2 4.8 0.00 0.00 0.00 81 1014.4
20260509160634 26 297 0.0 1.6 0.00 0.00 0.00 83 1014.5
20260509160130 26 305 3.2 3.2 0.00 0.00 0.00 84 1014.5
20260509155626 26 251 1.6 3.2 0.00 0.00 0.00 85 1014.3
20260509155123 25 319 0.0 1.6 0.00 0.00 0.00 86 1014.3
20260509154618 25 328 0.0 0.0 0.00 0.00 0.00 91 1014.7
20260509154116 24 300 1.6 1.6 0.00 0.00 0.00 92 1014.7
20260509153613 24 322 1.6 1.6 0.00 0.00 0.00 93 1014.9
20260509153110 23 315 1.6 1.6 0.00 0.00 0.00 94 1015.1
20260509152605 23 323 0.0 0.0 0.00 0.00 0.00 95 1015.5
20260509152103 23 357 0.0 1.6 0.00 0.00 0.00 95 1015.0
20260509151559 23 346 0.0 0.0 0.00 0.00 0.00 95 1015.4
20260509151057 23 316 0.0 0.0 0.00 0.00 0.00 95 1015.2
20260509150554 23 322 0.0 0.0 0.00 0.00 0.00 95 1015.2
20260509150053 23 318 1.6 1.6 0.00 0.00 0.00 95 1015.4
20260509145548 23 333 0.0 0.0 0.00 0.00 0.00 95 1015.2
20260509145042 23 342 0.0 0.0 0.00 0.00 0.00 95 1015.4
20260509144535 23 58 1.6 3.2 0.00 0.00 0.00 95 1015.4